#timestamp,LO_Frequency,Hit,StdDev 
1571439615.8,286047001.6,N
1571439635.7,286046999.7,N
1571439655.5,286047000.7,N
1571439675.3,286046999.5,N
1571439695.2,286047001.0,N
1571439715.0,286046998.5,N
1571439715.9,286046998.5,N
1571439735.8,286046999.4,N
1571439755.6,286047000.7,N
1571439775.4,286046996.7,N
1571439795.3,286046997.8,N
1571439815.1,286046996.6,N
1571439835.8,286046996.5,N
1571439855.7,286046995.6,N
1571439875.5,286046996.9,N
1571439895.4,286047001.1,N
1571439915.2,286046998.9,N
1571439935.0,286046995.4,N
1571439935.9,286046995.4,N
1571439955.8,286046995.8,N
1571439975.6,286046995.1,N
1571439995.4,286046995.2,N
1571440015.3,286046995.6,N
1571440035.1,286046997.3,N
1571440055.9,286046997.3,N
1571440075.7,286046999.4,N
1571440095.5,286046999.5,N
1571440115.4,286046996.6,N
1571440135.2,286046997.1,N
1571440155.0,286046997.9,N
1571440155.9,286046997.9,N
1571440175.8,286046999.3,N
1571440195.6,286046998.9,N
1571440215.5,286047002.4,N
1571440235.3,286047000.0,N
1571440255.1,286047000.6,N
1571440275.9,286047001.2,N
1571440295.7,286046998.3,N
1571440315.5,286046998.1,N
1571440335.4,286046999.4,N
1571440355.2,286046998.8,N
1571440375.1,286046997.9,N
1571440376.0,286046997.9,N
1571440395.8,286046993.6,Y
1571440415.6,286046993.6,P
1571440435.5,286046993.3,P
1571440455.3,286046993.5,P
1571440505.2,286046996.8,E
1571440515.1,286046998.4,N
1571440535.8,286047002.4,P
1571440555.7,286047002.4,N
1571440575.5,286047000.2,N
1571440595.4,286047001.1,N
1571440615.2,286046997.2,N
1571440635.0,286047002.7,N
1571440635.9,286047002.7,N
1571440655.8,286047000.8,N
1571440675.6,286047011.9,Y
1571440695.4,286046999.4,P
1571440715.3,286046997.7,P
1571440735.1,286046996.7,N
1571440755.9,286046996.7,N
1571440775.7,286046998.6,N
1571440795.5,286047001.2,N
1571440815.4,286046999.2,N
1571440835.2,286046997.9,N
1571440855.0,286046995.5,N
1571440855.9,286046995.5,N
1571440875.8,286046995.0,N
1571440895.6,286046994.1,N
1571440915.5,286046996.4,N
1571440935.3,286046998.8,N
1571440955.1,286046998.2,N
1571440975.9,286046997.3,N
1571440995.7,286046995.6,N
1571441015.5,286046993.3,Y
1571441035.4,286046996.6,P
1571441055.2,286046998.0,P
1571441075.1,286046998.0,P
1571441076.0,286046998.0,Y
1571441095.8,286046999.2,P
1571441115.6,286047002.1,N
1571441135.5,286047004.0,N
1571441155.3,286047004.8,N
1571441175.2,286047003.0,N
1571441195.9,286047003.4,N
1571441215.7,286047005.8,N
1571441235.6,286047007.0,N
1571441255.4,286047006.7,N
1571441275.2,286047007.9,N
1571441295.1,286047010.3,Y
1571441296.0,286047010.3,P
1571441315.8,286047004.7,N
1571441335.7,286047004.5,N
1571441355.5,286047006.8,N
1571441375.3,286047004.8,N
1571441395.2,286047004.5,N
1571441415.0,286047004.1,N
1571441415.9,286047004.1,N
1571441435.8,286047005.4,N
1571441455.6,286047004.0,N
1571441475.4,286047003.1,N
1571441495.3,286047006.0,Y
1571441515.1,286047000.8,P
1571441535.8,286046999.1,N
1571441555.7,286046998.3,N
1571441575.5,286046998.4,N
1571441595.4,286046998.4,N
1571441615.2,286047000.1,N
1571441635.0,286047000.9,N
1571441635.9,286047000.9,N
1571441655.8,286047002.7,N
1571441675.6,286047000.2,N
1571441695.4,286047001.2,N
1571441715.3,286047002.3,N
1571441735.1,286047002.3,N
1571441755.9,286047001.8,N
1571441775.7,286047002.0,N
1571441795.5,286047002.1,N
1571441815.4,286047000.3,N
1571441835.2,286047000.0,N
1571441855.0,286046998.9,N
1571441856.0,286046998.9,N
1571441875.8,286047000.5,N
1571441895.6,286046999.9,N
1571441915.5,286047000.7,N
1571441935.3,286047000.4,N
1571441955.1,286046999.7,N
1571441975.9,286047004.3,N
1571441995.7,286047004.4,N
1571442015.6,286046998.1,N
1571442035.4,286046999.9,N
1571442055.2,286047002.5,N
1571442075.1,286046999.9,N
1571442076.0,286046999.9,N
1571442095.8,286047000.2,N
1571442115.6,286047000.6,N
1571442135.5,286047002.3,N
1571442155.3,286047002.6,N
1571442175.2,286047000.3,N
1571442195.9,286047002.8,N
1571442215.7,286046998.9,N
1571442235.6,286046997.0,N
1571442255.4,286046998.6,N
1571442275.2,286046998.8,N
1571442295.1,286047000.8,N
1571442296.0,286047000.8,N
1571442315.8,286046998.8,N
1571442335.7,286046999.1,N
1571442355.5,286046999.6,N
1571442375.3,286046996.5,N
1571442395.2,286046995.2,N
1571442415.0,286046995.8,N
1571442415.9,286046995.8,N
1571442435.8,286046996.4,N
1571442455.6,286046996.2,N
1571442475.4,286046992.2,Y
1571442495.3,286046994.6,P
1571442515.1,286046993.0,N
1571442535.9,286046988.9,P
1571442555.7,286046994.5,N
1571442575.5,286046994.4,N
1571442595.4,286046992.7,N
1571442615.2,286046994.4,N
1571442635.0,286046992.5,N
1571442635.9,286046992.5,N
1571442655.8,286046992.7,N
1571442675.6,286046993.3,N
1571442695.5,286046995.6,N
1571442715.3,286046996.5,N
1571442735.1,286046999.1,N
1571442755.9,286047000.9,N
1571442775.7,286046998.4,N
1571442795.5,286046998.1,N
1571442815.4,286046999.8,N
1571442835.2,286047004.1,N
1571442855.1,286047002.6,N
1571442856.0,286047002.6,N
1571442875.8,286047001.3,N
1571442895.6,286047001.7,N
1571442915.5,286047004.1,N
1571442935.3,286047004.1,N
1571442955.1,286047001.8,N
1571442975.9,286047004.1,N
1571442995.7,286047002.5,N
1571443015.6,286047002.1,N
1571443035.4,286047002.7,N
1571443055.2,286047002.0,N
1571443075.1,286047000.1,N
1571443076.0,286047000.1,N
1571443095.8,286047002.1,N
1571443115.7,286047001.7,N
1571443135.5,286047002.7,N
1571443155.3,286047001.5,N
1571443175.2,286047001.9,N
1571443195.0,286047003.6,N
1571443195.9,286047003.6,N
